Regional Weather Roundup
Issued by NWS

Home | Current Version | Previous Version | Text Only | Print | Product List | Glossary On
Versions: 1 2 3 4 5 6 7 8 9 10 11 12 13 14 15 16 17 18 19 20 21 22 23 24 25 26 27 28 29 30 31 32 33 34 35 36 37 38 39 40 41 42 43 44 45 46 47 48 49 50
000
ASHW40 PHFO 260043
RWRHI

WEATHER ROUNDUP FOR HAWAII
NATIONAL WEATHER SERVICE HONOLULU HI
200 PM HST SAT MAR 25 2017

THIS IS AN AUTOMATED REPORT THAT HAS NOT BEEN QUALITY CONTROLLED.

NOTE..."FAIR" INDICATES FEW OR NO CLOUDS BELOW 12,000 FEET WITH NO
SIGNIFICANT WEATHER AND/OR OBSTRUCTIONS TO VISIBILITY.

* - THESE SITES REPORT LIMITED FIELDS

HIZ001>004-260100-
KAUAI-NIIHAU-

CITY           SKY/WX    TMP DP  RH WIND       PRES   REMARKS
LIHUE APT      MOSUNNY   80  68  66 NE14      30.20F
PORT ALLEN*      N/A     84 N/A N/A E24G31      N/A
POIPU*           N/A     81 N/A N/A NE10G23     N/A
PRINCEVILLE*     N/A     79 N/A N/A E12G20      N/A
KOKOLE POINT*  NOT AVBL
MOLOAA DAIRY*    N/A     81  66  61 E8G15       N/A
WAIMEA HTS*      N/A     91  66  43 W7G16       N/A  HX  94
PUU OPAE*      NOT AVBL
PUU LUA*       NOT AVBL
MAKAHA RIDGE*    N/A     79  64  61 SW3         N/A
$$

HIZ005>011-260100-
OAHU-

CITY           SKY/WX    TMP DP  RH WIND       PRES   REMARKS
HONOLULU       MOSUNNY   84  60  44 NE21G26   30.14F
KALAELOA       SUNNY     87  61  41 E10       30.14F
KANEOHE MCB    NOT AVBL
WHEELER FIELD  FAIR      80  63  56 SE10      30.16
BELLOWS*         N/A    N/A N/A N/A NE15        N/A
KAHUKU*          N/A    N/A N/A N/A NE13G25     N/A
WHEELER*         N/A    N/A N/A N/A E10G22      N/A
WAIANAE HARBOR   N/A    N/A N/A N/A NW14        N/A
DILLINGHAM*      N/A     88  66  48 SW8G18      N/A  HX  90
KAHUKU TRN*      N/A     82  70  65 W9G26       N/A
KAWAILOA*        N/A     77  63  61 E12G24      N/A
KII*             N/A     79  66  65 E18G24      N/A
MAKUA RANGE*     N/A     64  50  59 E6G12       N/A
OAHU FOREST NW   N/A    N/A N/A N/A CALM        N/A
SCHOFIELD BRK*   N/A     79  61  53 MISG        N/A
SCHOFIELD S*   NOT AVBL
WAIANAE VLY*     N/A     88  63  42 SE6G21      N/A
KUAOKALA*        N/A     75   5   6 E16G29      N/A
HONOULIUULI*   NOT AVBL
MOKUOLOE IS*   NOT AVBL
PALEHUA*         N/A    N/A N/A N/A NE10G20     N/A
WAIAWA PHB*    NOT AVBL
$$

HIZ012>013-260100-
MOLOKAI-

CITY           SKY/WX    TMP DP  RH WIND       PRES   REMARKS
MOLOKAI AIRPT  MOSUNNY   83  66  56 NE20G30   30.14F
KALAUPAPA      NOT AVBL
MAKAPULAPAI*     N/A     81  66  61 E23G31      N/A
MOLOKAI 1*       N/A     81 N/A N/A SE3         N/A
PUU ALII*        N/A     72  55  55 N2G10       N/A
$$

HIZ016-260100-
KAHOOLAWE-

CITY           SKY/WX    TMP DP  RH WIND       PRES   REMARKS
KAHOOLAWE*     NOT AVBL
HAKIOAWA*        N/A     81  64  56 MISG      30.55F
HONOKANAIA*      N/A     82  64  54 E21G36    30.09F
KANELOA*         N/A     77  63  61 E25G41    30.22F
KEALIALALO*    NOT AVBL
LUA MAKIKA*    NOT AVBL
$$

HIZ014>015-260100-
LANAI-

CITY           SKY/WX    TMP DP  RH WIND       PRES   REMARKS
LANAI CITY     FAIR      79  65  62 NE23G29   30.17F
LANAI 1*       NOT AVBL
$$

HIZ017>028-260100-
MAUI-

CITY           SKY/WX    TMP DP  RH WIND       PRES   REMARKS
KAHULUI        MOSUNNY   85  65  51 NE24G33   30.12F
KAPALUA-W MAUI MOSUNNY   82  61  47 NE15G28   30.15
HANA AIRPORT   PTSUNNY   79  66  65 E9        30.20F
HANA*            N/A     81 N/A N/A E9G16       N/A
HALEAKALA SUMM   N/A     48  21  34 E37         N/A
MAALAEA BAY*     N/A     82 N/A N/A N25G38      N/A
HALEAKALA*     NOT AVBL
KAUPO GAP*       N/A     91  46  21 NE12G28     N/A
KULA 1*          N/A     72  33  24 SE9G31      N/A
$$

HIZ023>026-260100-
BIG ISLAND OF HAWAII COAST AND LOWER SLOPES-

CITY           SKY/WX    TMP DP  RH WIND       PRES   REMARKS
KAILUA KONA    PTSUNNY   83  66  56 SW13      30.10F
HILO           MOSUNNY   82  66  58 E15       30.17F
HONOKAA*         N/A     73 N/A N/A VRB1        N/A
KAWAIHAE MWT*    N/A     86 N/A N/A NW9G15      N/A
KAWAIHAE*        N/A     81 N/A N/A NW15      30.07F
SOUTH POINT*     N/A     77 N/A N/A N25G39      N/A
UPOLU AIRPORT* NOT AVBL
KAMUELA*       PTCLDY    73  61  64 NE26      30.20S
HAKALAU*         N/A     68  39  35 S8G17       N/A
KALOKO-HONOKO*   N/A     84  68  58 W9        30.09F
PALI 2*          N/A     82  48  30 SW16G25     N/A
KEALAKOMO*       N/A     82  68  61 E22G29      N/A
KAUPULEHU*       N/A     82  64  54 W14G22      N/A
KAPAPALA*        N/A     80  64  58 E9G18       N/A
LOWER KAHUKU*    N/A    N/A N/A N/A NE3G18      N/A
PUHE CS*         N/A     84  63  48 W7G14       N/A
PUHO CS*         N/A     86  67  52 W5G12       N/A
PTA KEAMUKU*     N/A     72  59  64 CALM        N/A
WAIKOLOA*        N/A     84  61  45 NE14G26     N/A
$$

HIZ027>028-260100-
BIG ISLAND OF HAWAII INTERIOR AND SUMMMITS-

CITY           SKY/WX    TMP DP  RH WIND       PRES   REMARKS
BRADSHAW FIELD SUNNY     73  23  15 SE23G38   30.40F
MK VISITOR CEN   N/A     55  19  24 E16         N/A
MAUNA KEA*       N/A     39   5  24 NE22        N/A  WCI  29
MAUNA LOA*       N/A     55   7  14 MISG        N/A
MAUNA LOA 1*   NOT AVBL
PTA KIPUKA*      N/A    N/A N/A N/A N13G30      N/A
PTA RANGE 17*    N/A     57   9  14 E25G36      N/A
PTA WEST*        N/A     73  57  56 NW15G24     N/A
NENE CABIN*      N/A     64  46  52 E15G28      N/A
AHUMOA*          N/A     67  56  67 W7G15       N/A
PTA PORTABLE*  NOT AVBL
PUU MALI*        N/A     73  36  25 S10G26      N/A
$$

HIC003-260100-
NORTHWEST ISLANDS-

CITY           SKY/WX    TMP DP  RH WIND       PRES   REMARKS
MIDWAY ISLAND  SUNNY     73  64  73 S6        30.16F
MIDWAY NOS*      N/A     73 N/A N/A MISG      30.13F
FRENCH FRIGATE NOT AVBL
$$

PHZ110>124-180-260100-
BUOY REPORTS

STATION/POSITION TIME  TEMP    WIND        PRES    WAVE   SWELL
                       AIR SEA DIR/SP/G            HT/PER HT/DIR
                 (UTC) (F)     (DEG/KT/KT) (MB)    (FT/S) (FT/D)
BUOY 51001       0020   76 77   90/  8/ 12 1022.5
BUOY 51101       2350   76 76   70/  8/ 12 1023.4F  11/17  11/280
BUOY 51100       NOT AVBL
BUOY 51002       0020   78 78   70/ 19/ 23 1018.0
BUOY 51003       2350   77 79   50/ 14/ 17 1019.5F   8/19   7/300
BUOY 51004       2350      78   60/ 19/ 23 1019.4F   8/10   7/ 90
BARBERS PT BUOY  NOT AVBL
WAIMEA BAY BUOY  0002      76                N/A     6/20   5/300
KAILUA BAY BUOY  0004      77                N/A     6/ 6   2/350
LANAI BUOY       0015      79                N/A     4/ 9   2/220
BARBERS PT 2     NOT AVBL
PAUWELA MAUI     0009      77                N/A     6/11   3/350
HILO             0012      79                N/A     6/ 9   3/ 10
KANEOHE BAY BUOY 0025      76                N/A     4/11   2/350
HANALEI KAUAI    0022      78                N/A     9/20   8/290
KAHULUI HARBOR   0000   77 78   20/ 18/ 23 1020.8
HONOLULU HARBOR  0000   81 78   50/  8/ 13 1021.2
KILO NALU        NOT AVBL
HILO HARBOR      0000   87 76   80/  8/ 13 1021.3
MOKUOLOE         2336   79 79  100/ 10/ 16 1021.9F
NAWILIWILI       0000   78      40/ 10/ 15 1022.1
WHOTS BUOY       NOT AVBL
BUOY 51028       NOT AVBL
$$

......................KEY........................................
  SKY/WX - SKY CONDITIONS/PRESENT WEATHER
  TMP    - TEMPERATURE IN FAHRENHEIT
  DWPT   - DEWPOINT IN FAHRENHEIT
  RH     - RELATIVE HUMIDITY IN PERCENT
  WIND   - DIRECTION AND SPEED /MPH FOR ISLANDS...KTS FOR BUOYS/
  PRES   - MEAN SEA LEVEL PRESSURE IN INCHES OF HG
  VSB    - VISIBILITY IN MILES
  HX     - HEAT INDEX
  WCI    - WIND CHILL INDEX
  VRB    - VARIABLE WIND DIRECTION
  N/A    - NOT AVAILABLE



USA.gov is the U.S. government's official web portal to all federal, state and local government web resources and services.